Weather History for Thessaloniki, Greece

Change the Weather History Date:

Friday, April 12, 2013

  Actual Average Record
Temperature  
Mean Temperature 56 °F -  
Max Temperature 68 °F 71 °F 75 °F (1998)
Min Temperature 45 °F 48 °F 39 °F (2011)
Degree Days  
Heating Degree Days 8    
Growing Degree Days 6 (Base 50)    
Moisture  
Dew Point 48 °F    
Average Humidity 71    
Maximum Humidity 87    
Minimum Humidity 52    
Precipitation  
Precipitation 0.00 in 0.05 in - ()
Sea Level Pressure  
Sea Level Pressure 30.03 in    
Wind  
Wind Speed 6 mph ()    
Max Wind Speed 14 mph    
Max Gust Speed -    
Visibility 6.2 miles    
Events      
Averages and records for this station are not official NWS values.
T = Trace of Precipitation, MM = Missing Value Source: Averaged Metar Reports

Daily Weather History Graph

Daily Weather History Graph

Search for Another Location

Airport:

Trip Planner

Search our weather history database for the weather conditions in past years. The results will help you decide how hot, cold, wet, or windy it might be!

Date:

Astronomy

Apr. 12, 2013 Rise Set
Actual Time 6:54 AM EEST 8:04 PM EEST
Civil Twilight 6:26 AM EEST 8:32 PM EEST
Nautical Twilight 5:52 AM EEST 9:05 PM EEST
Astronomical Twilight 5:17 AM EEST 9:41 PM EEST
Moon 7:51 AM EEST (4/12) 10:18 PM EEST (4/12)
Length of Visible Light 14h 06m
Length of Day
13h 09m
Waxing Crescent, 4% of the Moon is Illuminated
Apr 12
Waxing Crescent
Apr 18
First Quarter
Apr 25
Full
May 2
Last Quarter
May 10
New

Hourly Weather History & Observations

Time (EEST) Temp. Windchill Dew Point Humidity Pressure Visibility Wind Dir Wind Speed Gust Speed Precip Events Conditions
12:20 AM 51.8 °F - 44.6 °F 76% 30.01 in 6.2 mi ESE 5.8 mph - N/A   Partly Cloudy
12:50 AM 55.4 °F - 42.8 °F 63% 30.01 in 6.2 mi SE 5.8 mph - N/A   Partly Cloudy
1:20 AM 55.4 °F - 42.8 °F 63% 30.01 in 6.2 mi SE 5.8 mph - N/A   Partly Cloudy
1:50 AM 50.0 °F - 44.6 °F 82% 30.01 in 6.2 mi East 5.8 mph - N/A   Partly Cloudy
2:20 AM 50.0 °F - 44.6 °F 82% 30.01 in 6.2 mi East 5.8 mph - N/A   Partly Cloudy
2:50 AM 51.8 °F - 42.8 °F 71% 30.01 in 6.2 mi ESE 6.9 mph - N/A   Partly Cloudy
3:00 AM 51 °F - 43 °F 67% 30.01 in 6 mi ESE 6.9 mph - -   Scattered Clouds
3:50 AM 50.0 °F - 42.8 °F 76% 29.98 in 6.2 mi ESE 8.1 mph - N/A   Partly Cloudy
4:20 AM 50.0 °F - 42.8 °F 76% 30.01 in 6.2 mi ESE 8.1 mph - N/A   Partly Cloudy
4:50 AM 50.0 °F - 42.8 °F 76% 30.01 in 6.2 mi Calm Calm - N/A   Partly Cloudy
5:20 AM 50.0 °F - 42.8 °F 76% 30.01 in 6.2 mi Calm Calm - N/A   Partly Cloudy
5:50 AM 50.0 °F - 44.6 °F 82% 30.01 in 6.2 mi Calm Calm - N/A   Partly Cloudy
6:20 AM 46.4 °F - 42.8 °F 87% 30.01 in 6.2 mi Calm Calm - N/A   Partly Cloudy
6:50 AM 44.6 °F 42.2 °F 41.0 °F 87% 30.04 in - East 4.6 mph - N/A   Clear
7:20 AM 44.6 °F 40.7 °F 41.0 °F 87% 30.04 in 6.2 mi East 6.9 mph - N/A   Partly Cloudy
7:50 AM 46.4 °F 42.9 °F 42.8 °F 87% 30.04 in 6.2 mi ESE 6.9 mph - N/A   Partly Cloudy
8:20 AM 50.0 °F - 44.6 °F 82% 30.04 in 6.2 mi ESE 4.6 mph - N/A   Scattered Clouds
8:50 AM 51.8 °F - 44.6 °F 76% 30.04 in 6.2 mi ESE 5.8 mph - N/A   Scattered Clouds
9:00 AM 51 °F - 44 °F 70% 30.06 in 6 mi ESE 5.8 mph - -   Scattered Clouds
9:20 AM 57.2 °F - 46.4 °F 67% 30.06 in 6.2 mi Variable 3.5 mph - N/A   Scattered Clouds
9:50 AM 60.8 °F - 48.2 °F 63% 30.06 in 6.2 mi Calm Calm - N/A   Mostly Cloudy
10:20 AM 60.8 °F - 48.2 °F 63% 30.06 in 6.2 mi Variable 2.3 mph - N/A   Mostly Cloudy
10:50 AM 60.8 °F - 50.0 °F 68% 30.06 in 6.2 mi WNW 4.6 mph - N/A   Mostly Cloudy
11:20 AM 60.8 °F - 50.0 °F 68% 30.06 in 6.2 mi WNW 6.9 mph - N/A   Mostly Cloudy
11:50 AM 60.8 °F - 50.0 °F 68% 30.06 in 6.2 mi WNW 6.9 mph - N/A   Mostly Cloudy
12:20 PM 62.6 °F - 51.8 °F 68% 30.06 in 6.2 mi West 6.9 mph - N/A   Mostly Cloudy
12:50 PM 62.6 °F - 51.8 °F 68% 30.06 in 6.2 mi West 6.9 mph - N/A   Mostly Cloudy
1:20 PM 64.4 °F - 50.0 °F 59% 30.04 in 6.2 mi NW 9.2 mph - N/A   Mostly Cloudy
1:50 PM 64.4 °F - 51.8 °F 64% 30.04 in 6.2 mi NW 11.5 mph - N/A   Mostly Cloudy
2:20 PM 64.4 °F - 51.8 °F 64% 30.04 in 6.2 mi NW 11.5 mph - N/A   Mostly Cloudy
2:50 PM 64.4 °F - 53.6 °F 68% 30.04 in 6.2 mi NW 11.5 mph - N/A   Mostly Cloudy
3:00 PM 65 °F - 54 °F 60% 30.04 in 6 mi NW 11.5 mph - -   Scattered Clouds
3:20 PM 68.0 °F - 53.6 °F 60% 30.01 in 6.2 mi South 11.5 mph - N/A   Mostly Cloudy
3:50 PM 68.0 °F - 53.6 °F 60% 30.01 in 6.2 mi South 13.8 mph - N/A   Mostly Cloudy
4:20 PM 68.0 °F - 53.6 °F 60% 30.01 in 6.2 mi South 13.8 mph - N/A   Scattered Clouds
4:50 PM 68.0 °F - 53.6 °F 60% 30.01 in 6.2 mi South 11.5 mph - N/A   Scattered Clouds
5:20 PM 68.0 °F - 53.6 °F 60% 30.01 in 6.2 mi South 13.8 mph - N/A   Mostly Cloudy
5:50 PM 68.0 °F - 53.6 °F 60% 30.01 in 6.2 mi South 11.5 mph - N/A   Scattered Clouds
6:20 PM 68.0 °F - 53.6 °F 60% 30.01 in 6.2 mi South 11.5 mph - N/A   Scattered Clouds
6:50 PM 66.2 °F - 48.2 °F 52% 30.01 in - South 11.5 mph - N/A   Clear
7:20 PM 62.6 °F - 53.6 °F 72% 30.01 in - South 11.5 mph - N/A   Clear
7:50 PM 60.8 °F - 46.4 °F 59% 30.01 in 6.2 mi South 11.5 mph - N/A   Scattered Clouds
8:20 PM 59.0 °F - 50.0 °F 72% 30.01 in 6.2 mi South 9.2 mph - N/A   Scattered Clouds
8:50 PM 57.2 °F - 50.0 °F 77% 30.01 in 6.2 mi Variable 3.5 mph - N/A   Scattered Clouds
9:00 PM 57 °F - 50 °F 70% 30.03 in 6 mi 3.5 mph - -   Scattered Clouds
9:20 PM 59.0 °F - 50.0 °F 72% 30.04 in 6.2 mi Calm Calm - N/A   Partly Cloudy
9:50 PM 57.2 °F - 50.0 °F 77% 30.04 in 6.2 mi Calm Calm - N/A   Partly Cloudy
10:20 PM 57.2 °F - 50.0 °F 77% 30.04 in 6.2 mi Calm Calm - N/A   Partly Cloudy
10:50 PM 55.4 °F - 50.0 °F 82% 30.04 in 6.2 mi Calm Calm - N/A   Partly Cloudy
11:20 PM 53.6 °F - 48.2 °F 82% 30.06 in 6.2 mi Variable 3.5 mph - N/A   Partly Cloudy
11:50 PM 51.8 °F - 46.4 °F 82% 30.04 in 6.2 mi ESE 4.6 mph - N/A   Partly Cloudy